When you browse on this site, cookies collect data to enhance your experience and personalize the content and advertising you see.
Visit our Privacy Policy to learn more. By continuing to use the site, you agree to this use of cookies and data.
  • In Germany
  • List of Countries
  • For 7 days
  • Water Temperature
  • Weather Map
  • Weather Widgets
  • user-avatar
    Login

    Hourly Weather Gjirokaster

    Today, 22 August, Thursday

    Time Temperature Precipitation Wind Pressure Humidity
    00:00 +18°C° 0 mm 1 mps 655 mmHg 61%
    01:00 +18°C° 0 mm 1 mps 655 mmHg 61%
    02:00 +18°C° 0 mm 1 mps 654 mmHg 60%
    03:00 +18°C° 0 mm 1 mps 654 mmHg 59%
    04:00 +16°C° 0 mm 1 mps 654 mmHg 58%
    05:00 +19°C° 0 mm 1 mps 655 mmHg 51%
    06:00 +21°C° 0 mm 1 mps 656 mmHg 45%
    07:00 +23°C° 0 mm 1 mps 656 mmHg 39%
    08:00 +25°C° 0 mm 1 mps 657 mmHg 35%
    09:00 +27°C° 0 mm 1 mps 657 mmHg 30%
    10:00 +28°C° 0 mm 1 mps 658 mmHg 26%
    11:00 +29°C° 0 mm 2 mps 658 mmHg 25%
    12:00 +29°C° 0 mm 2 mps 658 mmHg 24%
    13:00 +30°C° 0 mm 3 mps 658 mmHg 23%
    14:00 +29°C° 0 mm 3 mps 657 mmHg 25%
    15:00 +28°C° 0 mm 3 mps 657 mmHg 28%
    16:00 +28°C° 0 mm 3 mps 656 mmHg 30%
    17:00 +25°C° 0 mm 3 mps 656 mmHg 35%
    18:00 +23°C° 0 mm 2 mps 655 mmHg 41%
    19:00 +21°C° 0 mm 1 mps 655 mmHg 46%
    20:00 +21°C° 0 mm 1 mps 655 mmHg 48%
    21:00 +20°C° 0 mm 1 mps 655 mmHg 49%
    22:00 +20°C° 0 mm 1 mps 655 mmHg 50%
    23:00 +20°C° 0 mm 1 mps 655 mmHg 50%

    Tomorrow, 23 August, Friday

    Time Temperature Precipitation Wind Pressure Humidity
    00:00 +19°C° 0 mm 1 mps 655 mmHg 51%
    01:00 +19°C° 0 mm 1 mps 655 mmHg 51%
    02:00 +19°C° 0 mm 1 mps 655 mmHg 51%
    03:00 +19°C° 0 mm 1 mps 655 mmHg 51%
    04:00 +19°C° 0 mm 1 mps 655 mmHg 50%
    05:00 +21°C° 0 mm 1 mps 655 mmHg 46%
    06:00 +22°C° 0 mm 1 mps 656 mmHg 41%
    07:00 +24°C° 0 mm 1 mps 657 mmHg 37%
    08:00 +26°C° 0 mm 1 mps 657 mmHg 33%
    09:00 +27°C° 0 mm 2 mps 657 mmHg 30%
    10:00 +29°C° 0 mm 2 mps 658 mmHg 26%
    11:00 +29°C° 0 mm 2 mps 658 mmHg 27%
    12:00 +29°C° 0 mm 3 mps 657 mmHg 27%
    13:00 +29°C° 0 mm 3 mps 657 mmHg 28%
    14:00 +28°C° 0 mm 3 mps 657 mmHg 30%
    15:00 +27°C° 0 mm 3 mps 656 mmHg 31%
    16:00 +27°C° 0 mm 3 mps 656 mmHg 33%
    17:00 +25°C° 0 mm 2 mps 655 mmHg 38%
    18:00 +23°C° 0 mm 2 mps 655 mmHg 42%
    19:00 +21°C° 0 mm 2 mps 654 mmHg 47%
    20:00 +20°C° 0 mm 2 mps 654 mmHg 47%
    21:00 +21°C° 0 mm 1 mps 655 mmHg 48%
    22:00 +20°C° 0 mm 1 mps 655 mmHg 49%
    23:00 +20°C° 0 mm 1 mps 654 mmHg 49%

    Day after tomorrow, 24 August, Saturday

    Time Temperature Precipitation Wind Pressure Humidity
    00:00 +19°C° 0 mm 1 mps 654 mmHg 49%
    01:00 +19°C° 0 mm 1 mps 654 mmHg 50%
    02:00 +18°C° 0 mm 1 mps 654 mmHg 49%
    03:00 +18°C° 0 mm 1 mps 654 mmHg 48%
    04:00 +17°C° 0 mm 2 mps 654 mmHg 48%
    05:00 +20°C° 0 mm 1 mps 654 mmHg 43%
    06:00 +22°C° 0 mm 1 mps 655 mmHg 39%
    07:00 +24°C° 0 mm 1 mps 656 mmHg 35%
    08:00 +25°C° 0 mm 2 mps 656 mmHg 31%
    09:00 +27°C° 0 mm 2 mps 657 mmHg 28%
    10:00 +29°C° 0 mm 2 mps 657 mmHg 25%
    11:00 +29°C° 0 mm 3 mps 657 mmHg 25%
    12:00 +29°C° 0 mm 3 mps 656 mmHg 25%
    13:00 +29°C° 0 mm 3 mps 656 mmHg 26%
    14:00 +28°C° 0 mm 3 mps 656 mmHg 29%
    15:00 +27°C° 0 mm 3 mps 655 mmHg 31%
    16:00 +26°C° 0 mm 2 mps 655 mmHg 34%
    17:00 +25°C° 0 mm 2 mps 654 mmHg 38%
    18:00 +23°C° 0 mm 1 mps 654 mmHg 42%
    19:00 +22°C° 0 mm 1 mps 654 mmHg 47%
    20:00 +21°C° 0 mm 1 mps 654 mmHg 47%
    21:00 +21°C° 0 mm 1 mps 654 mmHg 47%
    22:00 +20°C° 0 mm 1 mps 654 mmHg 47%
    23:00 +20°C° 0 mm 1 mps 654 mmHg 47%

    25 August, Sunday

    Time Temperature Precipitation Wind Pressure Humidity
    00:00 +19°C° 0 mm 1 mps 653 mmHg 48%
    01:00 +19°C° 0 mm 1 mps 653 mmHg 48%
    02:00 +18°C° 0 mm 2 mps 653 mmHg 47%
    03:00 +18°C° 0 mm 2 mps 653 mmHg 47%
    04:00 +17°C° 0 mm 2 mps 653 mmHg 46%
    05:00 +20°C° 0 mm 1 mps 653 mmHg 42%
    06:00 +22°C° 0 mm 1 mps 654 mmHg 39%
    07:00 +24°C° 0 mm 1 mps 655 mmHg 35%
    08:00 +26°C° 0 mm 1 mps 655 mmHg 32%
    09:00 +28°C° 0 mm 2 mps 656 mmHg 28%
    10:00 +29°C° 0 mm 2 mps 656 mmHg 25%
    11:00 +29°C° 0 mm 2 mps 656 mmHg 26%
    12:00 +29°C° 0 mm 3 mps 655 mmHg 26%
    13:00 +29°C° 0 mm 3 mps 655 mmHg 27%
    14:00 +28°C° 0 mm 3 mps 655 mmHg 29%
    15:00 +27°C° 0 mm 4 mps 654 mmHg 32%
    16:00 +27°C° 0 mm 4 mps 654 mmHg 34%
    17:00 +25°C° 0 mm 3 mps 654 mmHg 39%
    18:00 +22°C° 0 mm 3 mps 653 mmHg 45%
    19:00 +20°C° 0 mm 2 mps 653 mmHg 50%
    20:00 +20°C° 0 mm 2 mps 653 mmHg 51%
    21:00 +19°C° 0 mm 2 mps 653 mmHg 51%
    22:00 +19°C° 0 mm 2 mps 653 mmHg 52%
    23:00 +19°C° 0 mm 1 mps 653 mmHg 51%

    26 August, Monday

    Time Temperature Precipitation Wind Pressure Humidity
    00:00 +19°C° 0 mm 1 mps 653 mmHg 51%
    01:00 +19°C° 0 mm 1 mps 653 mmHg 51%
    02:00 +18°C° 0 mm 2 mps 653 mmHg 49%
    03:00 +17°C° 0 mm 2 mps 653 mmHg 48%
    04:00 +17°C° 0 mm 2 mps 653 mmHg 46%
    05:00 +20°C° 0 mm 1 mps 653 mmHg 42%
    06:00 +22°C° 0 mm 1 mps 654 mmHg 38%
    07:00 +24°C° 0 mm 1 mps 655 mmHg 34%
    08:00 +26°C° 0 mm 1 mps 655 mmHg 31%
    09:00 +28°C° 0 mm 2 mps 656 mmHg 28%
    10:00 +29°C° 0 mm 2 mps 656 mmHg 24%
    11:00 +29°C° 0 mm 2 mps 656 mmHg 25%
    12:00 +29°C° 0 mm 3 mps 656 mmHg 25%
    13:00 +29°C° 0 mm 3 mps 656 mmHg 25%
    14:00 +28°C° 0 mm 3 mps 655 mmHg 28%
    15:00 +28°C° 0 mm 3 mps 655 mmHg 30%
    16:00 +27°C° 0 mm 3 mps 655 mmHg 33%
    17:00 +25°C° 0 mm 3 mps 654 mmHg 38%
    18:00 +23°C° 0 mm 2 mps 654 mmHg 43%
    19:00 +20°C° 0 mm 2 mps 654 mmHg 48%
    20:00 +20°C° 0 mm 2 mps 654 mmHg 48%
    21:00 +20°C° 0 mm 2 mps 654 mmHg 47%
    22:00 +21°C° 0 mm 1 mps 655 mmHg 47%
    23:00 +20°C° 0 mm 1 mps 654 mmHg 47%

    27 August, Tuesday

    Time Temperature Precipitation Wind Pressure Humidity
    00:00 +19°C° 0 mm 2 mps 654 mmHg 48%
    01:00 +18°C° 0 mm 2 mps 654 mmHg 49%
    02:00 +18°C° 0 mm 2 mps 654 mmHg 48%
    03:00 +17°C° 0 mm 2 mps 653 mmHg 47%
    04:00 +17°C° 0 mm 2 mps 653 mmHg 47%
    05:00 +20°C° 0 mm 1 mps 654 mmHg 42%
    06:00 +22°C° 0 mm 1 mps 655 mmHg 37%
    07:00 +23°C° 0 mm 1 mps 655 mmHg 33%
    08:00 +25°C° 0 mm 1 mps 656 mmHg 30%
    09:00 +27°C° 0 mm 1 mps 656 mmHg 26%
    10:00 +29°C° 0 mm 1 mps 657 mmHg 23%
    11:00 +29°C° 0 mm 2 mps 657 mmHg 24%
    12:00 +29°C° 0 mm 2 mps 656 mmHg 25%
    13:00 +29°C° 0 mm 3 mps 656 mmHg 26%
    14:00 +28°C° 0 mm 3 mps 656 mmHg 28%
    15:00 +27°C° 0 mm 2 mps 656 mmHg 31%
    16:00 +26°C° 0 mm 2 mps 655 mmHg 33%
    17:00 +24°C° 0 mm 2 mps 655 mmHg 37%
    18:00 +23°C° 0 mm 2 mps 655 mmHg 41%
    19:00 +20°C° 0 mm 2 mps 654 mmHg 45%
    20:00 +20°C° 0 mm 2 mps 654 mmHg 47%
    21:00 +19°C° 0 mm 2 mps 654 mmHg 49%
    22:00 +19°C° 0 mm 2 mps 654 mmHg 51%
    23:00 +19°C° 0 mm 1 mps 654 mmHg 52%
    Show more